FLOCK 2P-7

Last updated on Wed Feb 14 2018 16:19:51 GMT+0000 (Coordinated Universal Time)

1 41615U 16040S 18044.86627943 .00002309 00000-0 99070-4 0 9993 2 41615 97.4322 110.7301 0009431 322.8692 37.1892 15.23702205 91454

Satellite not in orbit

FLOCK 2P-7